Flag for Germany Weather past 2 weeks in Frankfurt, Hesse, Germany

Now
64 °F

Passing clouds.


Feels Like: 64 °F
Forecast: 55 / 68 °F
Wind: 10 mph from Southwest

Location: Frankfurt-M-Flughafen Airport

Current Time: Jul 8, 2015 at 6:36:56 AM

Latest Report: Jul 8, 2015 at 5:20 AM


Visibility: N/A

Pressure: 29.86 "Hg

Humidity: 64%

Dew point: 52 °F

Location of FrankfurtLocation

Historic Weather in Frankfurt — Graph

°F

Frankfurt temperature yesterday

Maximum temperature yesterday: 95 °F (at 3:20 PM)
Minimum temperature yesterday: 64 °F (at 4:50 AM)
Average temperature yesterday: 78 °F

Past Weeks' High & Low Weather Summary

 TemperatureHumidityPressure
High100 °F (Jul 4, 4:50 PM)100% (Jun 25, 4:50 AM)30.21 "Hg (Jun 25, 4:50 AM)
Low48 °F (Jun 23, 5:20 AM)20% (Jun 30, 4:50 PM)29.71 "Hg (Jul 7, 5:20 PM)
Average73 °F57%30.09 "Hg
* Reported Jun 23 5:20 AM — Jul 8 5:20 AM, Frankfurt, Weather by CustomWeather, © 2015

Note: Actual official high and low records may vary slightly from our data, if they occured in-between our weather recording intervals... More about our weather records

Advertising

Frankfurt weather history for previous 24 hours

 ConditionsComfort  
Time TempWeatherWind HumidityBarometerVisibility
5:20 AM
Wed, Jul 8
64 °FPassing clouds.10 mph64%29.86 "HgN/A
4:50 AM64 °FPassing clouds.14 mph60%29.86 "HgN/A
4:20 AM66 °FClear.12 mph56%29.86 "Hg10 mi
3:50 AM66 °FPassing clouds.15 mph56%29.83 "HgN/A
3:20 AM68 °FPartly cloudy.21 mph56%29.83 "HgN/A
2:50 AM72 °FPassing clouds.9 mph61%29.80 "HgN/A
2:20 AM72 °FPassing clouds.6 mph61%29.80 "HgN/A
1:20 AM72 °FClear.9 mph57%29.77 "Hg10 mi
12:50 AM72 °FClear.9 mph57%29.77 "Hg10 mi
12:20 AM72 °FClear.8 mph57%29.77 "Hg10 mi
11:20 PM
Tue, Jul 7
73 °FPassing clouds.5 mph53%29.77 "HgN/A
10:50 PM73 °FPassing clouds.7 mph53%29.77 "HgN/A
10:20 PM73 °FSprinkles. Partly sunny.9 mph61%29.77 "HgN/A
9:50 PM75 °FThunderstorms. Broken clouds.8 mph57%29.77 "HgN/A
9:20 PM77 °FScattered showers. Broken clouds.9 mph51%29.74 "HgN/A
8:50 PM79 °FBroken clouds.8 mph51%29.74 "HgN/A
8:20 PM79 °FPartly sunny.6 mph54%29.74 "HgN/A
7:50 PM82 °FSprinkles. Broken clouds.14 mph45%29.77 "HgN/A
7:20 PM86 °FScattered showers. Scattered clouds.14 mph40%29.74 "HgN/A
6:50 PM91 °FThunderstorms. Scattered clouds.13 mph30%29.74 "HgN/A
6:20 PM91 °FScattered showers. Broken clouds.21 mph30%29.71 "HgN/A
5:50 PM93 °FScattered clouds.20 mph24%29.71 "HgN/A
5:20 PM93 °FScattered clouds.14 mph30%29.71 "HgN/A
4:50 PM95 °FPartly sunny.14 mph26%29.74 "HgN/A
4:20 PM93 °FScattered showers. Scattered clouds.12 mph26%29.74 "HgN/A
3:50 PM93 °FPassing clouds.10 mph23%29.77 "HgN/A
3:20 PM95 °FPassing clouds.10 mph23%29.77 "HgN/A
2:50 PM91 °FPassing clouds.8 mph24%29.80 "HgN/A
2:20 PM91 °FPassing clouds.8 mph23%29.80 "HgN/A
1:50 PM91 °FPassing clouds.8 mph23%29.83 "HgN/A
1:20 PM90 °FSunny.6 mph24%29.86 "Hg10 mi
12:50 PM88 °FSunny.5 mph29%29.86 "Hg10 mi
12:20 PM86 °FSunny.5 mph31%29.86 "Hg10 mi
11:50 AM86 °FPassing clouds.6 mph31%29.89 "HgN/A
11:20 AM84 °FSunny.2 mph31%29.89 "Hg10 mi
10:50 AM81 °FSunny.3 mph32%29.92 "Hg10 mi
10:20 AM79 °FSunny.3 mph34%29.92 "Hg10 mi
9:50 AM77 °FPassing clouds.5 mph34%29.92 "HgN/A
9:20 AM75 °FPassing clouds.6 mph36%29.95 "HgN/A
8:50 AM73 °FPassing clouds.5 mph44%29.95 "HgN/A
8:20 AM72 °FPassing clouds.6 mph47%29.95 "HgN/A
7:50 AM68 °FSunny.7 mph53%29.98 "Hg10 mi
7:20 AM66 °FPassing clouds.6 mph60%29.98 "HgN/A
6:50 AM66 °FPassing clouds.6 mph56%29.98 "HgN/A
6:20 AM64 °FPassing clouds.5 mph64%29.98 "HgN/A
Weather by CustomWeather, © 2015

See weather overviewHow to use our weather pages